Location: Blangy-Tronville
(49.8790°N, 2.4226°E)
Time: 20:24:09
(UTC+00:00)

COSMOS 2406 - Pass Details

Date: 18 November 2025
Orbit: 845 x 858 km, 71.0° (Epoch: 04 December)

Event Time Altitude Azimuth Distance (km) Brightness Sun altitude
Rises 18:05:54 0° 331° (NNW) 3,418 6.7 -19.5°
Reaches altitude 10° 18:08:22 10° 332° (NNW) 2,480 5.9 -19.9°
Maximum altitude 18:14:05 84° 61° (ENE) 859 3.1 -20.8°
Enters shadow 18:19:02 14° 150° (SSE) 2,191 5.1 -21.6°
